Sigfox identifier Datetime Temperature Humidity SNR
003B5935 2019-02-20 13:40:59 20.9 23 24.7
003B5935 2019-02-20 13:07:46 20.9 24 24.7
003B5935 2019-02-20 12:34:31 20.9 24 24.1
003B5935 2019-02-20 12:01:16 20.8 25 24.1
003B5935 2019-02-20 11:28:00 20.8 26 23.5
003B5935 2019-02-20 10:54:46 20.7 27 22.6
003B5935 2019-02-20 10:21:31 20.7 27 21.6
003B5935 2019-02-20 09:48:16 20.7 27 21.6
003B5935 2019-02-20 09:15:03 20.7 27 20.3
003B5935 2019-02-20 08:41:47 20.6 27 18.4
003B5935 2019-02-20 08:08:32 20.6 27 18.4
003B5935 2019-02-20 07:35:15 20.6 27 18.4
003B5935 2019-02-20 07:02:00 20.6 27 18.2
003B5935 2019-02-20 06:28:44 20.7 27 18.1
003B5935 2019-02-20 05:55:29 20.7 27 18.4
003B5935 2019-02-20 05:22:14 20.7 27 18.2
003B5935 2019-02-20 04:49:00 20.7 27 18.1
003B5935 2019-02-20 04:15:46 20.7 27 18.1
003B5935 2019-02-20 03:42:31 20.7 27 17.9
003B5935 2019-02-20 03:09:17 20.7 27 20.1
003B5935 2019-02-20 02:36:02 20.7 27 20
003B5935 2019-02-20 02:02:48 20.7 27 20
003B5935 2019-02-20 01:29:35 20.7 27 20
003B5935 2019-02-20 00:56:19 20.7 27 21.4
003B5935 2019-02-20 00:23:05 20.7 27 21.5
003B5935 2019-02-19 23:49:52 20.7 27 21.3
003B5935 2019-02-19 23:16:39 20.8 27 21.3
003B5935 2019-02-19 22:43:22 20.8 27 22.4
003B5935 2019-02-19 22:10:09 20.8 27 22.4
003B5935 2019-02-19 21:36:52 20.8 27 22.6
003B5935 2019-02-19 21:03:38 20.8 27 22.6
003B5935 2019-02-19 20:30:22 20.9 27 22.5
003B5935 2019-02-19 19:57:11 20.9 27 22.6
003B5935 2019-02-19 19:23:56 20.9 27 22.6
003B5935 2019-02-19 18:50:42 20.9 27 22.7
003B5935 2019-02-19 18:17:28 21 27 22.7
003B5935 2019-02-19 17:44:13 21 27 22.8
003B5935 2019-02-19 17:10:57 21.1 27 22.8
003B5935 2019-02-19 16:37:42 21.1 27 22.9
003B5935 2019-02-19 16:04:27 21 27 23
003B5935 2019-02-19 15:31:16 21 27 23.1
003B5935 2019-02-19 14:57:58 21.2 27 23.1
003B5935 2019-02-19 14:56:41 21 27 23.2
003B5935 2019-02-19 14:23:24 21.1 27 23.2
003B5935 2019-02-19 13:50:09 21 27 22.4
003B5935 2019-02-19 13:16:53 20.9 27 22.4
003B5935 2019-02-19 12:43:36 20.9 27 22.4
003B5935 2019-02-19 12:10:19 21 27 22.4
003B5935 2019-02-19 11:37:02 21 27 21.2
003B5935 2019-02-19 11:03:47 20.9 27 21.3
003B5935 2019-02-19 10:30:31 20.8 27 21.4
003B5935 2019-02-19 09:57:19 20.8 26 21.4
003B5935 2019-02-19 09:24:01 20.8 26 19.9
003B5935 2019-02-19 08:50:45 20.7 26 19.7
003B5935 2019-02-19 08:17:30 20.7 25 19.3
003B5935 2019-02-19 07:44:15 20.7 25 19.3
003B5935 2019-02-19 07:10:59 20.7 25 19.3
003B5935 2019-02-19 06:37:45 20.7 25 19.1
003B5935 2019-02-19 06:04:30 20.7 25 19.2
003B5935 2019-02-19 05:31:14 20.7 25 19.1
003B5935 2019-02-19 04:58:00 20.7 24 18.8
003B5935 2019-02-19 04:24:48 20.7 24 18.5
003B5935 2019-02-19 03:51:31 20.7 24 18.2
003B5935 2019-02-19 03:18:16 20.7 24 18
003B5935 2019-02-19 02:45:01 20.7 24 17.6
003B5935 2019-02-19 02:11:47 20.7 24 17.3
003B5935 2019-02-19 01:38:32 20.7 24 17.7
003B5935 2019-02-19 01:05:17 20.7 24 18.1
003B5935 2019-02-19 00:32:01 20.7 23 18.2
003B5935 2019-02-18 23:58:46 20.7 23 18.4
003B5935 2019-02-18 23:25:30 20.7 23 18.9
003B5935 2019-02-18 22:52:17 20.7 23 18.9
003B5935 2019-02-18 22:19:02 20.8 23 19
003B5935 2019-02-18 21:45:46 20.8 23 19.4
003B5935 2019-02-18 21:12:31 20.8 23 19.5
003B5935 2019-02-18 20:39:16 20.8 22 19.6
003B5935 2019-02-18 20:06:01 20.8 22 19.7
003B5935 2019-02-18 19:32:47 20.8 22 19.9
003B5935 2019-02-18 18:59:32 20.8 22 20.1
003B5935 2019-02-18 18:26:18 20.8 22 20.3
003B5935 2019-02-18 17:53:02 20.9 22 20.3
003B5935 2019-02-18 17:19:48 20.9 22 21.7
003B5935 2019-02-18 16:46:32 20.9 21 21.9
003B5935 2019-02-18 16:13:18 21 21 21.9
003B5935 2019-02-18 15:40:04 21 21 22.1
003B5935 2019-02-18 15:06:50 21.1 21 22.2
003B5935 2019-02-18 14:33:36 21.1 21 22.4
003B5935 2019-02-18 14:00:22 21.2 20 22.6
003B5935 2019-02-18 13:27:08 21.3 20 22.8
003B5935 2019-02-18 12:53:56 21.4 20 22.9
003B5935 2019-02-18 12:20:39 21.5 20 23
003B5935 2019-02-18 11:47:24 21.6 19 23
003B5935 2019-02-18 11:46:06 21.4 19 22.9
003B5935 2019-02-18 11:12:51 21.4 19 23
003B5935 2019-02-18 10:39:35 21.3 19 23
003B5935 2019-02-18 10:06:23 21.2 19 22.9
003B5935 2019-02-18 09:33:06 21.1 19 23.1
003B5935 2019-02-18 08:59:50 21.1 19 23.1
003B5935 2019-02-18 08:26:34 21 19 23.2
003B5935 2019-02-18 07:53:20 20.9 18 23.2
003B5935 2019-02-18 07:20:07 20.9 18 23.3
003B5935 2019-02-18 06:46:52 20.9 18 23.3
003B5935 2019-02-18 06:13:39 20.9 18 23.4
003B5935 2019-02-18 05:40:25 20.9 18 23.5
003B5935 2019-02-18 05:07:11 20.9 18 23.5
003B5935 2019-02-18 04:33:57 20.9 18 23.5
003B5935 2019-02-18 04:00:42 20.9 19 22.9
003B5935 2019-02-18 03:27:26 20.9 19 22.9
003B5935 2019-02-18 02:54:10 20.9 19 23.6
003B5935 2019-02-18 02:20:55 20.9 19 23.5
003B5935 2019-02-18 01:47:40 20.9 19 23.5
003B5935 2019-02-18 01:14:26 21 19 23.5
003B5935 2019-02-18 00:41:12 20.9 19 23.5
003B5935 2019-02-18 00:07:57 20.9 19 24.1
003B5935 2019-02-17 23:34:42 21 19 24.2
003B5935 2019-02-17 23:01:29 21 19 24.2
003B5935 2019-02-17 22:28:14 21 19 24.2
003B5935 2019-02-17 21:54:58 21 19 24.2
003B5935 2019-02-17 21:21:44 21 20 24.2
003B5935 2019-02-17 20:48:29 21 20 24.3
003B5935 2019-02-17 20:15:14 21 20 24.3
003B5935 2019-02-17 19:42:00 21 20 24.2
003B5935 2019-02-17 19:08:46 21.1 20 24.3
003B5935 2019-02-17 18:35:31 21.1 20 24.3
003B5935 2019-02-17 18:02:16 21.1 20 24.2
003B5935 2019-02-17 17:29:02 21.1 20 24.3
003B5935 2019-02-17 16:55:48 21.1 20 24.3
003B5935 2019-02-17 16:22:34 21.1 20 24.3
003B5935 2019-02-17 15:49:20 21.1 20 24.3
003B5935 2019-02-17 15:16:05 21.2 20 24.3
003B5935 2019-02-17 14:42:49 21.2 21 24.4
003B5935 2019-02-17 14:09:34 21.2 21 24.3
003B5935 2019-02-17 13:36:18 21.2 21 24.3
003B5935 2019-02-17 13:03:03 21.1 20 23.8
003B5935 2019-02-17 12:29:48 21.1 20 23.7
003B5935 2019-02-17 11:56:31 21.1 20 23.8
003B5935 2019-02-17 11:23:15 21 21 23.9
003B5935 2019-02-17 10:50:00 21 21 23.8
003B5935 2019-02-17 10:16:46 21 21 23.2
003B5935 2019-02-17 09:43:31 21 21 23.2
003B5935 2019-02-17 09:10:16 21 21 23.2
003B5935 2019-02-17 08:37:01 21.2 21 23.2
003B5935 2019-02-17 08:35:43 21 21 23.2
003B5935 2019-02-17 08:02:27 21 21 23.2
003B5935 2019-02-17 07:29:12 21 22 23.2
003B5935 2019-02-17 06:55:56 21 22 23.2
003B5935 2019-02-17 06:22:42 21 22 23.2
003B5935 2019-02-17 05:49:26 21 22 23.3
003B5935 2019-02-17 05:16:11 21 22 23.2
003B5935 2019-02-17 04:42:56 21.1 22 23.2
003B5935 2019-02-17 04:09:40 21.1 23 23.1
003B5935 2019-02-17 03:36:23 21.1 23 23
003B5935 2019-02-17 03:03:08 21.1 23 23
003B5935 2019-02-17 02:29:53 21.1 23 23
003B5935 2019-02-17 01:56:37 21.1 24 22.9
003B5935 2019-02-17 01:23:22 21.1 24 23
003B5935 2019-02-17 00:50:06 21.1 24 23
003B5935 2019-02-17 00:16:51 21.1 24 22.9
003B5935 2019-02-16 23:43:35 21.1 24 23
003B5935 2019-02-16 23:10:21 21.1 24 23
003B5935 2019-02-16 22:37:06 21.1 24 22.9
003B5935 2019-02-16 22:03:50 21.2 24 22.8
003B5935 2019-02-16 21:30:36 21.2 25 22.9
003B5935 2019-02-16 20:57:22 21.1 25 22.8
003B5935 2019-02-16 20:24:07 21.2 25 22.8
003B5935 2019-02-16 19:50:52 21.2 25 22.8
003B5935 2019-02-16 19:17:37 21.2 25 22.7
003B5935 2019-02-16 18:44:23 21.2 25 22.7
003B5935 2019-02-16 18:11:07 21.2 25 22.7
003B5935 2019-02-16 17:37:54 21.3 25 22.8
003B5935 2019-02-16 17:04:40 21.4 25 22.8
003B5935 2019-02-16 16:31:25 21.4 25 22.8
003B5935 2019-02-16 15:58:10 21.4 25 22.8
003B5935 2019-02-16 15:24:55 21.4 25 22.8
003B5935 2019-02-16 14:51:39 21.4 25 22.8
003B5935 2019-02-16 14:18:23 21.3 25 22.9
003B5935 2019-02-16 13:45:07 21.3 25 22.9
003B5935 2019-02-16 13:11:51 21.3 25 23
003B5935 2019-02-16 12:38:34 21.2 25 23
003B5935 2019-02-16 12:05:16 21.2 25 22.9
003B5935 2019-02-16 11:32:00 21.1 25 22.8
003B5935 2019-02-16 10:58:45 21.1 25 22.9
003B5935 2019-02-16 10:25:29 21.1 25 22.9
003B5935 2019-02-16 09:52:15 21.1 25 22.9
003B5935 2019-02-16 09:19:00 21.1 25 23
003B5935 2019-02-16 08:45:46 21.1 25 23
003B5935 2019-02-16 08:12:31 21.1 25 23.2
003B5935 2019-02-16 07:39:16 21.1 25 23.2
003B5935 2019-02-16 07:05:58 21.1 25 23.2
003B5935 2019-02-16 06:32:43 21.1 25 23.2
003B5935 2019-02-16 05:59:29 21.1 25 23.2
003B5935 2019-02-16 05:26:14 21.3 25 23.2
003B5935 2019-02-16 05:24:56 21.1 26 23.2
003B5935 2019-02-16 04:51:41 21.1 25 23.2
003B5935 2019-02-16 04:18:25 21.1 25 23.2
003B5935 2019-02-16 03:45:10 21.1 25 23.2
003B5935 2019-02-16 03:11:55 21.1 25 23.1
003B5935 2019-02-16 02:38:38 21.1 25 23
003B5935 2019-02-16 02:05:22 21.2 25 23
003B5935 2019-02-16 01:32:07 21.2 25 23
003B5935 2019-02-16 00:58:53 21.2 25 22.9
003B5935 2019-02-16 00:25:37 21.2 25 22.9
003B5935 2019-02-15 23:52:21 21.3 25 22.8
003B5935 2019-02-15 23:19:06 21.3 25 22.7
003B5935 2019-02-15 22:45:50 21.4 25 22.7
003B5935 2019-02-15 22:12:33 21.4 25 22.7
003B5935 2019-02-15 21:39:17 21.5 25 22.6
003B5935 2019-02-15 21:06:03 21.5 25 22.7
003B5935 2019-02-15 20:32:49 21.6 25 22.7
003B5935 2019-02-15 19:59:33 21.6 25 22.7
003B5935 2019-02-15 19:26:18 21.7 25 22.7
003B5935 2019-02-15 18:53:02 21.8 25 22.6
003B5935 2019-02-15 18:19:45 21.8 25 22.5
003B5935 2019-02-15 17:46:29 21.8 25 22.6
003B5935 2019-02-15 17:13:13 21.8 25 22.5
003B5935 2019-02-15 16:40:00 21.8 24 22.5
003B5935 2019-02-15 16:06:46 21.8 24 22.5
003B5935 2019-02-15 15:33:32 21.8 24 22.5
003B5935 2019-02-15 15:00:17 21.8 24 22.5
003B5935 2019-02-15 14:27:02 21.7 24 22.4
003B5935 2019-02-15 13:53:47 21.7 24 22.5
003B5935 2019-02-15 13:20:30 21.7 24 22.5
003B5935 2019-02-15 12:47:15 21.6 24 23.3
003B5935 2019-02-15 12:14:00 21.6 24 23.3
003B5935 2019-02-15 11:40:46 21.6 24 23.2
003B5935 2019-02-15 11:07:33 21.5 24 23.3
003B5935 2019-02-15 10:34:17 21.5 25 23.4
003B5935 2019-02-15 10:01:01 21.4 25 23.4
003B5935 2019-02-15 09:27:47 21.4 25 23.4
003B5935 2019-02-15 08:54:33 21.3 25 23.5
003B5935 2019-02-15 08:21:18 21.3 25 23.4
003B5935 2019-02-15 07:48:04 21.3 25 23.5
003B5935 2019-02-15 07:14:49 21.3 25 23.4
003B5935 2019-02-15 06:41:33 21.3 25 23.4
003B5935 2019-02-15 06:08:18 21.3 25 23.4
003B5935 2019-02-15 05:35:02 21.3 25 23.3
003B5935 2019-02-15 05:01:45 21.3 25 23.2
003B5935 2019-02-15 04:28:30 21.3 26 23.1
003B5935 2019-02-15 03:55:15 21.3 26 23
003B5935 2019-02-15 03:22:01 21.3 26 22.9
003B5935 2019-02-15 02:48:46 21.3 26 22.8
003B5935 2019-02-15 02:15:31 21.5 25 22.6
003B5935 2019-02-15 02:14:14 21.3 26 22.5
003B5935 2019-02-15 01:40:59 21.3 26 22.3
003B5935 2019-02-15 01:07:45 21.3 26 22.4
003B5935 2019-02-15 00:34:31 21.4 25 22.2
003B5935 2019-02-15 00:01:16 21.4 25 22.2
003B5935 2019-02-14 23:28:01 21.4 25 22.2
003B5935 2019-02-14 22:54:45 21.4 25 22
003B5935 2019-02-14 22:21:30 21.5 25 22
003B5935 2019-02-14 21:48:15 21.5 25 21.9
003B5935 2019-02-14 21:15:00 21.6 25 21.8
003B5935 2019-02-14 20:41:45 21.6 24 21.7
003B5935 2019-02-14 20:08:31 21.7 24 21.6
003B5935 2019-02-14 19:35:16 21.8 24 21.6
003B5935 2019-02-14 19:02:00 21.8 24 21.6
003B5935 2019-02-14 18:28:45 21.9 24 21.6
003B5935 2019-02-14 17:55:28 21.9 24 21.6
003B5935 2019-02-14 17:22:13 21.9 24 21.4
003B5935 2019-02-14 16:48:58 21.9 24 21.4
003B5935 2019-02-14 16:15:43 21.9 24 21.5
003B5935 2019-02-14 15:42:28 21.9 24 21.4
003B5935 2019-02-14 15:09:13 21.8 24 21.5
003B5935 2019-02-14 14:35:58 21.7 24 21.6
003B5935 2019-02-14 14:02:42 21.6 24 21.7
003B5935 2019-02-14 13:29:28 21.6 24 21.6
003B5935 2019-02-14 12:56:13 21.5 24 21.7
003B5935 2019-02-14 12:22:59 21.4 23 21.7
003B5935 2019-02-14 11:49:44 21.4 24 21.9
003B5935 2019-02-14 11:16:29 21.4 24 21.7
003B5935 2019-02-14 10:43:14 21.1 24 21.8
003B5935 2019-02-14 10:09:59 21 24 21.6
003B5935 2019-02-14 09:36:44 21 24 20.3
003B5935 2019-02-14 09:03:28 20.9 24 20.5
003B5935 2019-02-14 08:30:13 20.8 24 20.4
003B5935 2019-02-14 07:56:57 20.8 25 20.5
003B5935 2019-02-14 07:23:42 20.9 25 20.4
003B5935 2019-02-14 06:50:28 20.8 25 20.4
003B5935 2019-02-14 06:17:14 20.9 25 20.3
003B5935 2019-02-14 05:43:59 20.9 25 20.3
003B5935 2019-02-14 05:10:43 20.9 25 20.2
003B5935 2019-02-14 04:37:27 20.9 25 20.2
003B5935 2019-02-14 04:04:11 20.9 25 20.1
003B5935 2019-02-14 03:30:54 20.9 25 20.2
003B5935 2019-02-14 02:57:38 20.9 25 20
003B5935 2019-02-14 02:24:21 20.9 25 20
003B5935 2019-02-14 01:51:05 20.9 25 19.8
003B5935 2019-02-14 01:17:49 20.9 25 19.8
003B5935 2019-02-14 00:44:32 20.9 25 19.8
003B5935 2019-02-14 00:11:15 20.9 25 19.8
003B5935 2019-02-13 23:37:57 21 25 19.8
003B5935 2019-02-13 23:04:41 21.2 24 19.8
003B5935 2019-02-13 23:03:24 21 25 19.9
003B5935 2019-02-13 22:30:08 21 25 19.8
003B5935 2019-02-13 21:56:54 21.1 25 19.8
003B5935 2019-02-13 21:23:39 21.1 25 19.7
003B5935 2019-02-13 20:50:24 21.2 25 21.2
003B5935 2019-02-13 20:17:08 21.3 25 21.3
003B5935 2019-02-13 19:43:52 21.3 25 21.3
003B5935 2019-02-13 19:10:35 21.4 25 21.2
003B5935 2019-02-13 18:37:20 21.5 25 21.2
003B5935 2019-02-13 18:04:04 21.5 26 21.2
003B5935 2019-02-13 17:30:47 21.5 26 21.3
003B5935 2019-02-13 16:57:30 21.5 26 22.3
003B5935 2019-02-13 16:24:14 21.4 25 22.3
003B5935 2019-02-13 15:50:57 21.3 25 22.3
003B5935 2019-02-13 15:17:40 21.3 25 22.3
003B5935 2019-02-13 14:44:22 21.2 25 22.3
003B5935 2019-02-13 14:11:07 21.2 24 22.2
003B5935 2019-02-13 13:37:51 21.2 24 22.3
003B5935 2019-02-13 13:04:36 21.2 24 22.2
003B5935 2019-02-13 12:31:20 21.2 24 22.2
003B5935 2019-02-13 11:58:04 21.1 24 22.3
003B5935 2019-02-13 11:24:50 21.1 24 22.3
003B5935 2019-02-13 10:51:34 21 24 22.2
003B5935 2019-02-13 10:18:18 20.9 23 22.2
003B5935 2019-02-13 09:45:04 20.9 22 23
003B5935 2019-02-13 09:11:49 20.8 22 23
003B5935 2019-02-13 08:38:34 20.8 21 23
003B5935 2019-02-13 08:05:19 20.8 20 23
003B5935 2019-02-13 07:32:03 20.8 19 22.9
003B5935 2019-02-13 06:58:47 20.8 19 22
003B5935 2019-02-13 06:25:32 20.8 19 21.8
003B5935 2019-02-13 05:52:15 20.8 19 21.8
003B5935 2019-02-13 05:19:00 20.8 19 21.7
003B5935 2019-02-13 04:45:45 20.9 19 21.7
003B5935 2019-02-13 04:12:28 20.9 19 21.6
003B5935 2019-02-13 03:39:12 20.9 19 21.5
003B5935 2019-02-13 03:05:56 20.9 19 20.1
003B5935 2019-02-13 02:32:39 20.9 19 20
003B5935 2019-02-13 01:59:22 20.9 19 19.9
003B5935 2019-02-13 01:26:06 20.9 19 20
003B5935 2019-02-13 00:52:50 21 19 20
003B5935 2019-02-13 00:19:34 21 20 20
003B5935 2019-02-12 23:46:17 21 20 19.9
003B5935 2019-02-12 23:13:02 21 20 19.9
003B5935 2019-02-12 22:39:46 21.1 19 19.9
003B5935 2019-02-12 22:06:32 21.1 20 19.7
003B5935 2019-02-12 21:33:15 21.2 20 19.6
003B5935 2019-02-12 21:00:01 21.3 21 19.6
003B5935 2019-02-12 20:26:45 21.4 21 19.7
003B5935 2019-02-12 19:53:31 21.7 20 17.4
003B5935 2019-02-12 19:52:13 21.5 21 17.5
003B5935 2019-02-12 19:18:57 21.5 20 17.9
003B5935 2019-02-12 18:45:42 21.6 20 18
003B5935 2019-02-12 18:12:26 21.6 19 18
003B5935 2019-02-12 17:39:08 21.7 20 18.3
003B5935 2019-02-12 17:05:51 21.8 19 18.3
003B5935 2019-02-12 16:32:34 21.8 19 18.3
003B5935 2019-02-12 15:59:16 21.9 19 18.4
003B5935 2019-02-12 15:26:00 21.9 19 18.4
003B5935 2019-02-12 14:52:45 21.7 19 18.7
003B5935 2019-02-12 14:19:29 21.4 20 18.7
003B5935 2019-02-12 13:46:14 21.4 20 18.9
003B5935 2019-02-12 13:12:57 21.3 20 18.9
003B5935 2019-02-12 12:39:42 21.4 21 19.2
003B5935 2019-02-12 12:06:27 21.3 21 19
003B5935 2019-02-12 11:33:13 21.3 21 19
003B5935 2019-02-12 10:59:57 21.3 22 18.8
003B5935 2019-02-12 10:26:41 21.3 23 19
003B5935 2019-02-12 09:53:26 21.1 23 19
003B5935 2019-02-12 09:20:12 21 23 19.2
003B5935 2019-02-12 08:46:56 20.9 24 19.3
003B5935 2019-02-12 08:13:39 20.9 24 19.3
003B5935 2019-02-12 07:40:24 20.9 25 19.5
003B5935 2019-02-12 07:07:08 20.9 26 19.3
003B5935 2019-02-12 06:33:53 20.9 26 19.3
003B5935 2019-02-12 06:00:38 20.9 26 19.2
003B5935 2019-02-12 05:27:23 20.9 26 19
003B5935 2019-02-12 04:54:08 20.9 27 18.9
003B5935 2019-02-12 04:20:54 20.9 27 19
003B5935 2019-02-12 03:47:38 20.9 27 18.9
003B5935 2019-02-12 03:14:23 20.9 27 19.1
003B5935 2019-02-12 02:41:08 20.9 27 19.2
003B5935 2019-02-12 02:07:52 20.9 27 19.3
003B5935 2019-02-12 01:34:36 21 27 19.4
003B5935 2019-02-12 01:01:19 21 27 19.2
003B5935 2019-02-12 00:28:02 21 27 19.5
003B5935 2019-02-11 23:54:45 21 27 19.4
003B5935 2019-02-11 23:21:28 21.1 27 19.4
003B5935 2019-02-11 22:48:12 21.1 27 19.2
003B5935 2019-02-11 22:14:55 21.1 27 19.4
003B5935 2019-02-11 21:41:38 21.2 27 19.3
003B5935 2019-02-11 21:08:20 21.3 27 19.6
003B5935 2019-02-11 20:35:03 21.4 27 19.5
003B5935 2019-02-11 20:01:44 21.5 27 19.4
003B5935 2019-02-11 19:28:27 21.6 27 19.1
003B5935 2019-02-11 18:55:08 21.7 27 18.8
003B5935 2019-02-11 18:21:51 21.8 27 19.3
003B5935 2019-02-11 17:48:34 22 28 16.1
003B5935 2019-02-11 17:15:15 22.2 28 13.1
003B5935 2019-02-11 16:41:55 22.1 33 0